Regional Weather Roundup
Issued by NWS Cleveland, OH

Home | Current Version | Previous Version | Text Only | Print | Product List | Glossary Off
Versions: 1 2 3 4 5 6 7 8 9 10 11 12 13 14 15 16 17 18 19 20 21 22 23 24 25 26 27 28 29 30 31 32 33 34 35 36 37 38 39 40 41 42 43 44 45 46 47 48 49 50

000
ASUS41 KCLE 172110
RWRCLE
OHIO REGIONAL WEATHER ROUNDUP
NATIONAL WEATHER SERVICE CLEVELAND, OH
400 PM EST WED JAN 17 2018

NOTE: "FAIR" INDICATES FEW OR NO CLOUDS BELOW 12,000 FEET WITH NO
SIGNIFICANT WEATHER AND/OR OBSTRUCTIONS TO VISIBILITY.

OHZ001>008-015>018-024>027-034-035-043-044-172200-
   NORTHWEST OHIO

CITY           SKY/WX    TMP DP  RH WIND       PRES   REMARKS
DEFIANCE       FAIR      19  11  70 SW10      30.41F WCI   7
FINDLAY        FAIR      18   9  68 SW14      30.42S WCI   4
TOLEDO EXPRESS FAIR      20  13  74 SW10      30.38F WCI   9
TOLEDO EXEC    FAIR      17  10  74 SW17      30.40F HAZE    WCI   1
LIMA           FAIR      16  10  77 SW10      30.43S WCI   4
$$

OHZ009>014-019>023-028>033-038-089-172200-
   NORTHEAST OHIO

CITY           SKY/WX    TMP DP  RH WIND       PRES   REMARKS
CLE-HOPKINS    CLOUDY    20   9  62 SW10      30.42S WCI   9
CLE-LAKEFRONT  CLOUDY    20   8  60 SW14      30.40S WCI   7
CUY CO. ARPT   PTSUNNY   21  10  63 SW14      30.39S WCI   8
LORAIN-ELYRIA  FAIR      17   6  62 SW10      30.40  WCI   5
ASHTABULA      CLOUDY    20   9  62 W7        30.36F WCI  11
AKRON-CANTON   FAIR      13   4  67 SW12      30.39S WCI  -1
WOOSTER        FAIR      15   7  70 SW10      30.40S WCI   2
MANSFIELD      FAIR      16   8  71 SW10      30.38F WCI   4
YOUNGSTOWN     FAIR      15   6  67 SW8       30.36S WCI   4
$$

OHZ042-051>053-060>062-070>072-077>081-172200-
  SOUTHWEST OHIO

CITY           SKY/WX    TMP DP  RH WIND       PRES   REMARKS
CINC-COVINGTON PTSUNNY   19  11  70 SW6       30.50S WCI  11
CINC-LUNKEN    PTSUNNY   19  10  68 SW9       30.55S WCI   8
HAMILTON       FAIR      22  11  62 SW7       30.53S WCI  13
DAYTON         FAIR      17  10  74 W12       30.47S WCI   4
WRIGHT-PAT AFB SUNNY     18   7  62 SW10      30.48S WCI   6
DAYTON GENERAL FAIR      18   9  68 SW8       30.48S WCI   8
WILMINGTON     PTSUNNY   15   8  73 SW9       30.47S WCI   3
$$

OHZ036-037-039>041-045>050-054>059-063>069-073>076-082>088-172200-
  CENTRAL AND SOUTHEAST OHIO

CITY           SKY/WX    TMP DP  RH WIND       PRES   REMARKS
COLUMBUS       FAIR      13   6  74 S8        30.48F WCI   2
OSU AIRPORT    FAIR      14   8  77 SW10      30.46F WCI   1
BOLTON FIELD   SUNNY     12   7  79 SW9       30.48F WCI   0
RICKENBACK AFB PTSUNNY   12   6  77 SW8       30.49F WCI   0
NEWARK         FAIR      12   4  70 SW9       30.46F WCI   0
MARION         PTSUNNY   15   8  73 SW10      30.43F HAZE    WCI   2
LANCASTER      FAIR      11   4  73 W8        30.49S WCI  -1
ZANESVILLE     FAIR      13   4  67 W9        30.46S WCI   1
NEW PHILLY     NOT AVBL
$$



USA.gov is the U.S. government's official web portal to all federal, state and local government web resources and services.